Location: Gleizolles
(44.4833°N, 6.7667°E)
Time: 16:37:15
(UTC+00:00)

Transit 2A - Pass Details

Date: 26 June 2024
Orbit: 591 x 960 km, 66.7° (Epoch: 16 July)

Event Time Altitude Azimuth Distance (km) Brightness Sun altitude
Rises 23:23:32 0° 320° (NW) 3,574 10.3 -22.1°
Reaches altitude 10° 23:26:16 10° 311° (NW) 2,659 9.3 -22.2°
Maximum altitude 23:31:44 33° 250° (WSW) 1,569 7.4 -22.2°
Enters shadow 23:33:02 30° 227° (SW) 1,653 7.3 -22.2°
